Location: Devore Heights
(34.2372°N, 117.4156°W)
Time: 04:14:07
(UTC+00:00)

Vanguard 2 Rocket - Pass Details

Date: 19 September 2024
Orbit: 553 x 3298 km, 32.9° (Epoch: 14 October)

Event Time Altitude Azimuth Distance (km) Brightness Sun altitude
Exits shadow 09:17:33 51° 93° (E) 2,564 9.0 -48.2°
Drops below altitude 10° 09:29:02 10° 87° (E) 5,598 11.2 -46.7°
Sets 09:34:08 0° 87° (E) 6,913 11.8 -46.0°
